TIROS 6 DEB, 29006

Orbit data source: Space-Track

TIROS 6 DEB, 29006 is space debris in LEO originally from a launch on Tue, 18 Sep 1962 UTC launched from the Air Force Eastern Test Range (AFETR). Debris objects in space refer to the collection of defunct objects orbiting the Earth. Examples of debris include non-operational satellites, rocket bodies, and fragments generated from explosions, collisions, or faulty payload assembly.

Loading next visibility...
Identifier
29006, 1962-047F
Orbit
LEO
Country
Flag of USUS
Related business
Manufacturer
Unknown
Mission
Spacecraft
Bus & Motor
Unknown
Mass
Unknown
Launch date (UTC)
1962-09-18 (63 years ago)
Launch vehicle
Unknown
Launch site
Air Force Eastern Test Range (AFETR)
Object type
Payload
Rocket body
Debris
Shape & HBR
Unknown shape, 0.1 m
Radar Cross Section
Small (<0.1 m²)

Expand to show TLE details & history
Last TLE update: 2 days ago

TLE from 2 days ago
0 TIROS 6 DEB
1 29006U 62047F   25307.85116470  .00000852  00000-0  12238-3 0  9999
2 29006  58.3076 156.2484 0014486  64.3402 295.9136 14.85426619668146
Epoch: 2025-11-03T20:25Z
TLE epoch observation values (Epoch: 2025-11-03T20:25:40.630Z)
Latitude
0.00002°
Longitude
166.48251°
Altitude
609.241 km
Speed
7.558 km/s
True Right ascension
10h 24m 59s
True Declination
0° 00' 00"
Sunlit
Object was in daylight at epoch
Visualization orbit readout
Latitude
Unknown
Longitude
Unknown
Altitude
Unknown
Speed
Unknown
Apparent Right ascension
Unknown
Apparent Declination
Unknown
Sunlit
N/A
Visualization observer readout
Local Sidereal Time
02:57:53
Azimuth
Unknown
Elevation
Unknown
Doppler factor
Unknown
Orbital elements
Apogee altitude
621.835 km
Perigee altitude
601.584 km
Semi-major axis
6,989.847 km
Eccentricity
0.00145
Inclination
58.3076°
RAAN
156.2484°
Arg. of periapsis
64.3402°
True anomaly
295.76417°
Mean anomaly
295.9136°
Eccentric anomaly
295.8389°
Mean motion
3.714 °/min
Orbital period
96.93 mins
BSTAR
0.00012238
Loading maneuver chart data...
Computing Atmospheric mass density...
Loading historical data...
Loading historical data...
Loading historical data...
Loading historical data...
Loading historical data...
Loading historical data...
Loading historical data...

Documentation

Showing up to 5 results
|